"2009-12-05 00:00:00",1474846,14.47,313.9,2.369,0.735,5.794,99.7726,-1.279,0.015,26.12,0,109.5,13.6,-0.53,275.9
"2009-12-05 00:00:30",1474847,15.24,312.8,3.257,0.706,5.892,99.77798,-1.266,0.028,26.29,0,109.4,13.6,-0.52,274.8
"2009-12-05 00:01:00",1474848,14.68,312.8,3.304,0.705,6.236,99.78392,-1.25,0.027,26.21,0,109.4,13.6,-0.50,274.8
"2009-12-05 00:01:30",1474849,15.28,312.4,2.468,0.898,6.231,99.79694,-1.217,0.027,26.22,0,109.4,13.6,-0.47,274.4
"2009-12-05 00:02:00",1474850,15.09,310.9,2.976,0.754,6.346,99.8111,-1.181,0.048,26.33,0,109.5,13.6,-0.43,272.9
"2009-12-05 00:02:30",1474851,14.53,309.3,3.693,0.964,6.407,99.81591,-1.169,0.065,26.34,0,109.4,13.61,-0.42,271.3
"2009-12-05 00:03:00",1474852,15,307.6,3.448,0.879,6.285,99.81647,-1.167,0.052,26.36,0,109.4,13.61,-0.42,269.6
"2009-12-05 00:03:30",1474853,14.99,306.5,3.661,0.671,6.342,99.81789,-1.164,0.077,26.41,0,109.4,13.61,-0.42,268.5
"2009-12-05 00:04:00",1474854,14.65,304.3,3.531,0.661,6.21,99.82071,-1.157,0.063,26.36,0,109.4,13.61,-0.41,266.3
"2009-12-05 00:04:30",1474855,13.81,302.3,3.477,0.652,6.076,99.82241,-1.152,0.104,26.31,0,109.4,13.61,-0.40,264.3
"2009-12-05 00:05:00",1474856,13.13,303.3,3.217,0.618,5.81,99.83743,-1.114,0.11,26.35,0,109.4,13.61,-0.37,265.3
"2009-12-05 00:05:30",1474857,13.76,309.2,4.144,0.769,5.264,99.85271,-1.075,0.119,26.6,0,109.4,13.61,-0.33,271.2
"2009-12-05 00:06:00",1474858,14.05,312,3.916,0.366,5.331,99.85471,-1.07,0.137,26.9,0,109.4,13.61,-0.32,274.0
"2009-12-05 00:06:30",1474859,14.1,311,3.037,1.156,5.278,99.8479,-1.087,0.137,27.07,0,109.4,13.61,-0.34,273.0
"2009-12-05 00:07:00",1474860,15.33,311.6,3.661,0.839,6.143,99.83176,-1.128,0.136,26.85,0,109.4,13.61,-0.38,273.6
"2009-12-05 00:07:30",1474861,15.04,311.6,3.591,0.952,6.412,99.82496,-1.146,0.138,26.64,0,109.4,13.61,-0.40,273.6
"2009-12-05 00:08:00",1474862,14.06,315.2,2.414,0.952,6.414,99.82298,-1.151,0.104,26.5,0,109.5,13.61,-0.40,277.2
"2009-12-05 00:08:30",1474863,14.78,315.4,3.77,0.917,6.504,99.82298,-1.151,0.123,26.43,0,109.4,13.61,-0.40,277.4
"2009-12-05 00:09:00",1474864,16.32,312.6,3.665,0.706,6.316,99.82779,-1.139,0.118,26.57,0,109.4,13.61,-0.39,274.6
"2009-12-05 00:09:30",1474865,16.06,307,3.317,1.263,6.46,99.83714,-1.115,0.127,26.78,0,109.4,13.61,-0.37,269.0
"2009-12-05 00:10:00",1474866,14.24,310,4.789,0.804,6.415,99.8496,-1.083,0.116,26.74,0,109.5,13.61,-0.33,272.0
"2009-12-05 00:10:30",1474867,15.81,307.9,3.428,0.792,6.225,99.85668,-1.065,0.142,26.72,0,109.4,13.62,-0.32,269.9
"2009-12-05 00:11:00",1474868,15.94,308.8,3.392,0.707,6.053,99.85611,-1.066,0.136,26.77,0,109.4,13.62,-0.32,270.8
"2009-12-05 00:11:30",1474869,16.01,306.4,2.551,0.782,6.283,99.85668,-1.065,0.146,26.76,0,109.4,13.62,-0.32,268.4
"2009-12-05 00:12:00",1474870,15.37,306,2.911,0.656,6.208,99.85725,-1.063,0.158,26.7,0,109.5,13.62,-0.32,268.0
"2009-12-05 00:12:30",1474871,14.08,305.7,3.157,1.009,6.168,99.85753,-1.063,0.193,26.65,0,109.4,13.61,-0.31,267.7
"2009-12-05 00:13:00",1474872,13.82,311.1,3.778,0.897,5.689,99.8581,-1.061,0.178,26.66,0,109.4,13.61,-0.31,273.1
"2009-12-05 00:13:30",1474873,13.9,316.9,3.328,0.959,5.997,99.85781,-1.062,0.182,26.73,0,109.4,13.61,-0.31,278.9
"2009-12-05 00:14:00",1474874,14,316.3,3.465,0.67,6.407,99.86063,-1.055,0.202,26.58,0,109.4,13.6,-0.31,278.3
"2009-12-05 00:14:30",1474875,13.43,316.9,3.029,0.771,6.549,99.85979,-1.057,0.195,26.52,0,109.4,13.6,-0.31,278.9
"2009-12-05 00:15:00",1474876,13.35,317,3.353,0.739,6.407,99.86008,-1.056,0.195,26.49,0,109.4,13.61,-0.31,279.0
"2009-12-05 00:15:30",1474877,13.38,316.6,3.096,0.793,6.552,99.86008,-1.056,0.198,26.48,0,109.4,13.6,-0.31,278.6
"2009-12-05 00:16:00",1474878,13.8,316.7,3.607,0.555,6.336,99.86149,-1.053,0.204,26.52,0,109.4,13.61,-0.30,278.7
"2009-12-05 00:16:30",1474879,13.31,316.1,2.827,0.841,6.397,99.86942,-1.032,0.227,26.52,0,109.4,13.61,-0.28,278.1
"2009-12-05 00:17:00",1474880,13,315.6,2.967,0.813,6.379,99.87452,-1.019,0.228,26.5,0,109.4,13.61,-0.27,277.6
"2009-12-05 00:17:30",1474881,13.41,317.4,2.293,1.023,6.313,99.88132,-1.002,0.24,26.53,0,109.4,13.61,-0.25,279.4
"2009-12-05 00:18:00",1474882,12.89,317.7,2.991,0.706,6.292,99.8901,-0.98,0.229,26.56,0,109.4,13.61,-0.23,279.7
"2009-12-05 00:18:30",1474883,13,316.6,3.603,0.718,6.26,99.89689,-0.962,0.255,26.59,0,109.4,13.62,-0.21,278.6
"2009-12-05 00:19:00",1474884,13.3,315.6,3.302,0.74,6.304,99.89718,-0.962,0.257,26.61,0,109.4,13.62,-0.21,277.6
"2009-12-05 00:19:30",1474885,12.66,315.8,3.816,0.667,6.531,99.89803,-0.96,0.266,26.64,0,109.4,13.62,-0.21,277.8
"2009-12-05 00:20:00",1474886,12.4,318.9,3.219,0.581,6.39,99.89915,-0.957,0.274,26.64,0,109.4,13.62,-0.21,280.9
"2009-12-05 00:20:30",1474887,11.69,318.9,2.915,0.82,6.246,99.90681,-0.937,0.296,26.65,0,109.4,13.62,-0.19,280.9
"2009-12-05 00:21:00",1474888,13.04,319.7,3.283,0.662,5.918,99.91049,-0.928,0.287,26.6,0,109.4,13.62,-0.18,281.7
"2009-12-05 00:21:30",1474889,14.23,318.4,3.481,0.681,6.097,99.91332,-0.921,0.291,26.58,0,109.4,13.62,-0.17,280.4
"2009-12-05 00:22:00",1474890,15.59,317.8,2.679,0.698,6.084,99.91417,-0.918,0.32,26.62,0,109.4,13.62,-0.17,279.8
"2009-12-05 00:22:30",1474891,16,314.8,3.877,0.784,6.352,99.92153,-0.9,0.333,26.69,0,109.4,13.62,-0.15,276.8
"2009-12-05 00:23:00",1474892,15.68,312.2,3.248,0.703,6.38,99.9289,-0.881,0.331,26.8,0,109.4,13.62,-0.13,274.2
"2009-12-05 00:23:30",1474893,15.56,313.6,3.5,0.553,6.414,99.93174,-0.874,0.347,26.87,0,109.4,13.62,-0.12,275.6
"2009-12-05 00:24:00",1474894,15.1,316.6,1.916,0.719,6.139,99.93201,-0.873,0.356,26.82,0,109.4,13.62,-0.12,278.6
"2009-12-05 00:24:30",1474895,14.9,316.6,3.524,0.647,6.066,99.93201,-0.873,0.372,26.78,0,109.4,13.62,-0.12,278.6
"2009-12-05 00:25:00",1474896,14.67,318.2,3.29,0.634,6.346,99.93201,-0.873,0.37,26.75,0,109.4,13.62,-0.12,280.2
"2009-12-05 00:25:30",1474897,15.07,318.4,3.094,0.725,6.567,99.93201,-0.873,0.375,26.73,0,109.4,13.62,-0.12,280.4
"2009-12-05 00:26:00",1474898,14.84,318.5,3.401,0.54,6.675,99.93201,-0.873,0.374,26.76,0,109.5,13.62,-0.12,280.5
"2009-12-05 00:26:30",1474899,15.28,317.8,3.545,0.708,6.757,99.93201,-0.873,0.384,26.82,0,109.4,13.62,-0.12,279.8
"2009-12-05 00:27:00",1474900,15.87,316.6,3.085,0.821,6.45,99.93201,-0.873,0.373,26.87,0,109.4,13.62,-0.12,278.6
"2009-12-05 00:27:30",1474901,16.79,316.8,2.379,0.753,6.615,99.93201,-0.873,0.358,26.93,0,109.4,13.62,-0.12,278.8
"2009-12-05 00:28:00",1474902,15.9,317.5,1.92,0.913,6.691,99.93201,-0.873,0.379,27,0,109.4,13.62,-0.12,279.5
"2009-12-05 00:28:30",1474903,15.1,318.1,3.657,0.889,6.921,99.93201,-0.873,0.415,27.05,0,109.4,13.62,-0.12,280.1
"2009-12-05 00:29:00",1474904,15.37,318.8,3.051,0.853,6.915,99.93201,-0.873,0.391,27.13,0,109.4,13.62,-0.12,280.8
"2009-12-05 00:29:30",1474905,16.02,319.4,3.271,0.751,6.908,99.93201,-0.873,0.392,27.28,0,109.4,13.62,-0.12,281.4
"2009-12-05 00:30:00",1474906,16.44,320.2,2.676,0.807,6.692,99.93201,-0.873,0.396,27.41,0,109.4,13.62,-0.12,282.2
"2009-12-05 00:30:30",1474907,16.41,320.7,3.257,0.771,6.759,99.93201,-0.873,0.437,27.53,0,109.4,13.61,-0.12,282.7
"2009-12-05 00:31:00",1474908,16.47,319.4,3.759,0.86,6.644,99.93429,-0.867,0.421,27.58,0,109.4,13.61,-0.12,281.4
"2009-12-05 00:31:30",1474909,16.84,321.7,3.589,0.657,6.61,99.93994,-0.853,0.419,27.69,0,109.4,13.62,-0.10,283.7
"2009-12-05 00:32:00",1474910,18.23,320.6,2.811,0.764,6.874,99.94392,-0.843,0.417,27.81,0,109.4,13.61,-0.09,282.6
"2009-12-05 00:32:30",1474911,18.43,321.2,3.468,0.764,7.205,99.9473,-0.834,0.45,28.05,0,109.4,13.61,-0.08,283.2
"2009-12-05 00:33:00",1474912,17.42,319.7,3.534,0.549,7.194,99.95524,-0.814,0.441,28.11,0,109.4,13.61,-0.06,281.7
"2009-12-05 00:33:30",1474913,16.67,317.5,4.06,1.155,7.625,99.96374,-0.792,0.447,28.02,0,109.4,13.61,-0.04,279.5
"2009-12-05 00:34:00",1474914,15.48,316.2,3.119,0.671,7.12,99.96601,-0.786,0.451,28.01,0,109.4,13.62,-0.04,278.2
"2009-12-05 00:34:30",1474915,14.89,316.7,3.648,0.831,7.018,99.96601,-0.786,0.461,27.97,0,109.4,13.62,-0.04,278.7
"2009-12-05 00:35:00",1474916,14.41,314.1,3.706,0.667,6.97,99.96629,-0.786,0.455,27.84,0,109.4,13.62,-0.04,276.1
"2009-12-05 00:35:30",1474917,14.19,313.1,3.871,0.563,7.125,99.96742,-0.783,0.488,27.71,0,109.4,13.62,-0.03,275.1
"2009-12-05 00:36:00",1474918,15.13,317.6,2.309,1.054,6.752,99.97422,-0.765,0.48,27.82,0,109.4,13.62,-0.02,279.6
"2009-12-05 00:36:30",1474919,14.57,314.2,3.402,0.896,6.961,99.97791,-0.756,0.507,28.11,0,109.4,13.62,-0.01,276.2
"2009-12-05 00:37:00",1474920,14.36,314.3,3.965,0.567,6.812,99.98866,-0.728,0.498,28.03,0,109.4,13.62,0.02,276.3
"2009-12-05 00:37:30",1474921,14.65,316.7,2.886,0.751,6.835,99.99915,-0.702,0.524,28.08,0,109.4,13.62,0.05,278.7
"2009-12-05 00:38:00",1474922,14.29,315.4,3.07,0.811,6.968,100,-0.7,0.545,28.13,0,109.4,13.62,0.05,277.4
"2009-12-05 00:38:30",1474923,13.67,314.5,3.957,0.692,6.942,100.0006,-0.698,0.573,28.12,0,109.4,13.62,0.05,276.5
"2009-12-05 00:39:00",1474924,13.5,311,3.366,0.998,6.807,100.0116,-0.67,0.57,27.85,0,109.4,13.62,0.08,273.0
"2009-12-05 00:39:30",1474925,14.22,313.3,4.212,1.173,6.919,100.0252,-0.635,0.578,27.88,0,109.4,13.62,0.11,275.3
"2009-12-05 00:40:00",1474926,14.48,316.3,3.284,0.599,6.751,100.034,-0.613,0.595,27.93,0,109.4,13.62,0.14,278.3
"2009-12-05 00:40:30",1474927,14.98,314.5,4.312,0.806,6.578,100.034,-0.613,0.625,28.06,0,109.4,13.62,0.14,276.5
"2009-12-05 00:41:00",1474928,13.98,315.1,3.123,0.874,6.385,100.0445,-0.586,0.642,27.88,0,109.4,13.62,0.16,277.1
"2009-12-05 00:41:30",1474929,14.1,319.2,2.694,0.796,6.427,100.0513,-0.569,0.655,27.7,0,109.4,13.62,0.18,281.2
"2009-12-05 00:42:00",1474930,13.93,317.3,3.095,0.681,6.559,100.0586,-0.55,0.668,27.68,0,109.5,13.62,0.20,279.3
"2009-12-05 00:42:30",1474931,13.43,318,3.014,0.781,6.525,100.0674,-0.528,0.685,27.78,0,109.4,13.62,0.22,280.0
"2009-12-05 00:43:00",1474932,13.69,318.7,3.408,0.694,6.592,100.068,-0.526,0.679,27.9,0,109.4,13.62,0.22,280.7
"2009-12-05 00:43:30",1474933,14.52,320.2,3.533,0.697,6.784,100.068,-0.526,0.701,28.03,0,109.4,13.62,0.22,282.2
"2009-12-05 00:44:00",1474934,15.1,321.1,3.375,0.479,6.476,100.068,-0.526,0.721,28.1,0,109.4,13.62,0.22,283.1
"2009-12-05 00:44:30",1474935,13.94,319,3.401,0.821,6.83,100.068,-0.526,0.716,28.09,0,109.4,13.62,0.22,281.0
"2009-12-05 00:45:00",1474936,13.78,316.4,3.712,0.708,6.794,100.068,-0.526,0.72,28.08,0,109.4,13.62,0.22,278.4
"2009-12-05 00:45:30",1474937,14.3,315.9,4.708,0.477,7.017,100.068,-0.526,0.73,28.13,0,109.4,13.62,0.22,277.9
"2009-12-05 00:46:00",1474938,13.84,317,3.571,0.638,6.522,100.068,-0.526,0.749,28.15,0,109.4,13.62,0.22,279.0
"2009-12-05 00:46:30",1474939,13.84,318.3,3.648,0.76,6.899,100.068,-0.526,0.756,28.11,0,109.4,13.62,0.22,280.3
"2009-12-05 00:47:00",1474940,13.8,318.2,4.356,0.772,6.572,100.068,-0.526,0.752,28.11,0,109.4,13.62,0.22,280.2
"2009-12-05 00:47:30",1474941,13.82,318.4,3.9,0.553,7.051,100.068,-0.526,0.761,28.11,0,109.4,13.62,0.22,280.4
"2009-12-05 00:48:00",1474942,13.51,320.3,2.273,0.751,6.703,100.0688,-0.524,0.76,28.15,0,109.5,13.62,0.23,282.3
"2009-12-05 00:48:30",1474943,13.55,320.6,3.723,0.824,6.298,100.0694,-0.523,0.772,28.22,0,109.4,13.62,0.23,282.6
"2009-12-05 00:49:00",1474944,13.92,321.7,3.329,0.838,6.326,100.0694,-0.523,0.77,28.24,0,109.4,13.62,0.23,283.7
"2009-12-05 00:49:30",1474945,14.04,325.2,3.597,0.896,5.269,100.0685,-0.525,0.773,28.53,0,109.4,13.62,0.23,287.2
"2009-12-05 00:50:00",1474946,13.9,321.7,3.594,0.659,6.513,100.068,-0.526,0.773,28.62,0,109.5,13.62,0.22,283.7
"2009-12-05 00:50:30",1474947,13.35,318.1,3.869,1.223,5.833,100.068,-0.526,0.774,28.33,0,109.4,13.62,0.22,280.1
"2009-12-05 00:51:00",1474948,12.71,320.9,6.672,1.513,5.371,100.0634,-0.538,0.751,28.93,0,109.4,13.62,0.21,282.9
"2009-12-05 00:51:30",1474949,14.28,319.4,3.917,0.923,6.403,100.0411,-0.595,0.747,28.92,0,109.4,13.62,0.16,281.4
"2009-12-05 00:52:00",1474950,14.75,319.1,3.147,0.586,6.71,100.034,-0.613,0.728,28.72,0,109.4,13.62,0.14,281.1
"2009-12-05 00:52:30",1474951,14.36,320.4,4.32,1.265,5.912,100.0334,-0.614,0.712,28.85,0,109.4,13.62,0.14,282.4
"2009-12-05 00:53:00",1474952,14.06,317,3.624,1.297,5.9,100.0153,-0.661,0.676,28.98,0,109.4,13.62,0.09,279.0
"2009-12-05 00:53:30",1474953,14.51,316,3.808,0.802,7.055,100.0003,-0.699,0.676,28.92,0,109.4,13.62,0.05,278.0
"2009-12-05 00:54:00",1474954,14.38,318.6,3.475,0.665,6.49,100,-0.7,0.654,28.82,0,109.4,13.62,0.05,280.6
"2009-12-05 00:54:30",1474955,15.01,319.2,3.536,0.742,6.536,99.99149,-0.721,0.643,28.88,0,109.4,13.62,0.03,281.2
"2009-12-05 00:55:00",1474956,15.28,319.6,3.858,0.72,6.807,99.97733,-0.757,0.604,28.88,0,109.4,13.62,-0.01,281.6
"2009-12-05 00:55:30",1474957,15.94,319,3.36,0.778,6.932,99.97309,-0.768,0.591,28.88,0,109.4,13.63,-0.02,281.0
"2009-12-05 00:56:00",1474958,16.14,320.4,3.338,0.847,6.609,99.96884,-0.779,0.575,28.83,0,109.4,13.63,-0.03,282.4
"2009-12-05 00:56:30",1474959,15.65,319.1,4.199,0.811,7.027,99.96714,-0.783,0.558,28.79,0,109.4,13.63,-0.03,281.1
"2009-12-05 00:57:00",1474960,15.79,318.7,3.715,0.642,6.941,99.96601,-0.786,0.556,28.81,0,109.4,13.62,-0.04,280.7
"2009-12-05 00:57:30",1474961,15.62,317.5,3.797,0.477,7.358,99.96601,-0.786,0.549,28.7,0,109.4,13.63,-0.04,279.5
"2009-12-05 00:58:00",1474962,16.4,319.3,4.304,0.501,6.851,99.96601,-0.786,0.535,28.73,0,109.4,13.63,-0.04,281.3
"2009-12-05 00:58:30",1474963,16.04,319.2,3.471,0.756,6.763,99.96601,-0.786,0.549,28.72,0,109.4,13.63,-0.04,281.2
"2009-12-05 00:59:00",1474964,15.62,319.3,3.771,0.663,6.587,99.96601,-0.786,0.537,28.86,0,109.4,13.63,-0.04,281.3
"2009-12-05 00:59:30",1474965,15.76,318.7,3.345,0.654,7.124,99.96601,-0.786,0.517,28.59,0,109.4,13.63,-0.04,280.7
"2009-12-05 01:00:00",1474966,15.46,320.3,3.173,0.691,5.913,99.96658,-0.785,0.519,28.58,0,109.4,13.63,-0.04,282.3
"2009-12-05 01:00:30",1474967,14.84,319.6,3.226,0.652,5.786,99.96601,-0.786,0.54,29.06,0,109.4,13.63,-0.04,281.6
"2009-12-05 01:01:00",1474968,15.3,320.8,3.711,0.569,6.793,99.96601,-0.786,0.528,28.98,0,109.4,13.63,-0.04,282.8
"2009-12-05 01:01:30",1474969,15.1,320,3.334,0.628,7.177,99.96601,-0.786,0.51,28.55,0,109.4,13.62,-0.04,282.0
"2009-12-05 01:02:00",1474970,15.74,321.3,4.104,0.43,7.082,99.96572,-0.787,0.506,28.3,0,109.4,13.62,-0.04,283.3
"2009-12-05 01:02:30",1474971,15.05,321.6,3.522,0.693,6.64,99.96601,-0.786,0.516,28.37,0,109.4,13.62,-0.04,283.6
"2009-12-05 01:03:00",1474972,14.71,319,3.433,0.655,6.372,99.96601,-0.786,0.503,28.43,0,109.4,13.62,-0.04,281.0
"2009-12-05 01:03:30",1474973,15.75,319,3.294,0.726,7.282,99.96119,-0.799,0.482,28.52,0,109.4,13.62,-0.05,281.0
"2009-12-05 01:04:00",1474974,15.84,319,2.821,0.556,7.356,99.95496,-0.814,0.481,28.22,0,109.5,13.62,-0.07,281.0
"2009-12-05 01:04:30",1474975,15.3,318.8,3.994,0.787,6.858,99.95439,-0.816,0.493,28,0,109.4,13.62,-0.07,280.8
"2009-12-05 01:05:00",1474976,14.89,319.2,4.359,0.828,5.635,99.96119,-0.799,0.476,28.45,0,109.4,13.62,-0.05,281.2
"2009-12-05 01:05:30",1474977,13.69,316.3,3.68,0.682,5.548,99.95156,-0.823,0.478,29.18,0,109.4,13.62,-0.07,278.3
"2009-12-05 01:06:00",1474978,15.41,321.5,3.154,0.955,6.812,99.94221,-0.847,0.468,28.92,0,109.4,13.62,-0.10,283.5
"2009-12-05 01:06:30",1474979,16.26,322.7,3.467,0.672,7.377,99.93768,-0.858,0.484,28.38,0,109.4,13.62,-0.11,284.7
"2009-12-05 01:07:00",1474980,15.75,323,2.559,0.807,7.742,99.93429,-0.867,0.452,28.04,0,109.4,13.63,-0.12,285.0
"2009-12-05 01:07:30",1474981,15.99,322.7,3.524,0.65,7.903,99.93881,-0.856,0.474,27.97,0,109.4,13.63,-0.11,284.7
"2009-12-05 01:08:00",1474982,16.66,325.2,3.213,0.73,7.282,99.96431,-0.791,0.469,27.81,0,109.5,13.63,-0.04,287.2
"2009-12-05 01:08:30",1474983,15.36,325.6,3.393,0.715,7.156,99.9728,-0.769,0.497,27.78,0,109.4,13.63,-0.02,287.6
"2009-12-05 01:09:00",1474984,15.5,324.7,3.489,0.71,7.186,99.9813,-0.747,0.501,27.66,0,109.4,13.63,0.00,286.7
"2009-12-05 01:09:30",1474985,15,326,3.832,0.756,6.695,99.99377,-0.715,0.509,27.72,0,109.4,13.63,0.03,288.0
"2009-12-05 01:10:00",1474986,14.33,323.9,2.949,0.64,6.691,100,-0.7,0.532,27.87,0,109.4,13.63,0.05,285.9
"2009-12-05 01:10:30",1474987,14.66,319.2,3.574,0.709,7.343,100,-0.7,0.545,27.85,0,109.4,13.63,0.05,281.2
"2009-12-05 01:11:00",1474988,14.2,317.2,3.854,0.558,7.667,100,-0.7,0.531,27.81,0,109.4,13.63,0.05,279.2
"2009-12-05 01:11:30",1474989,14.57,318.3,3.614,0.578,7.669,100.0048,-0.687,0.558,27.79,0,109.4,13.63,0.06,280.3
"2009-12-05 01:12:00",1474990,15.48,322.1,2.894,0.629,7.242,100.0227,-0.642,0.581,27.75,0,109.4,13.63,0.11,284.1
"2009-12-05 01:12:30",1474991,14.97,323.1,3.542,0.74,7.123,100.0371,-0.605,0.618,27.69,0,109.4,13.63,0.14,285.1
"2009-12-05 01:13:00",1474992,14.6,322.1,3.336,0.661,6.973,100.0524,-0.566,0.638,27.66,0,109.4,13.63,0.18,284.1
"2009-12-05 01:13:30",1474993,14,320.5,3.902,0.476,7.33,100.0666,-0.53,0.649,27.7,0,109.4,13.63,0.22,282.5
"2009-12-05 01:14:00",1474994,14.27,318.9,3.805,0.306,7.362,100.068,-0.526,0.675,27.62,0,109.4,13.63,0.22,280.9
"2009-12-05 01:14:30",1474995,13.62,319.4,2.724,0.719,7.145,100.068,-0.526,0.698,27.42,0,109.4,13.63,0.22,281.4
"2009-12-05 01:15:00",1474996,14.26,319,3.827,0.597,7.329,100.0739,-0.511,0.686,27.33,0,109.4,13.63,0.24,281.0
"2009-12-05 01:15:30",1474997,14.3,319.4,3.803,0.607,7.349,100.0946,-0.458,0.738,27.35,0,109.4,13.63,0.29,281.4
"2009-12-05 01:16:00",1474998,14.43,319.3,3.272,0.54,7.049,100.102,-0.44,0.755,27.24,0,109.4,13.63,0.31,281.3
"2009-12-05 01:16:30",1474999,14.18,320.5,3.53,0.63,7.032,100.1034,-0.436,0.795,27.13,0,109.4,13.63,0.31,282.5
"2009-12-05 01:17:00",1475000,14.11,321.1,3.306,0.631,7.327,100.1136,-0.41,0.795,27.01,0,109.4,13.63,0.34,283.1
"2009-12-05 01:17:30",1475001,13.45,318.8,3.77,0.543,7.614,100.1187,-0.397,0.823,27.08,0,109.4,13.63,0.35,280.8
"2009-12-05 01:18:00",1475002,13.05,320.5,3.322,0.593,7.32,100.1289,-0.371,0.839,27.07,0,109.4,13.62,0.38,282.5
"2009-12-05 01:18:30",1475003,13.32,319.5,3.978,0.588,7.237,100.136,-0.353,0.861,26.89,0,109.4,13.62,0.40,281.5
"2009-12-05 01:19:00",1475004,13.66,320,4.362,0.577,6.644,100.1362,-0.352,0.87,26.77,0,109.4,13.62,0.40,282.0
"2009-12-05 01:19:30",1475005,13.09,320.5,4.206,1.451,5.71,100.1484,-0.321,0.91,27.84,0,109.4,13.62,0.43,282.5
"2009-12-05 01:20:00",1475006,13.43,319.7,3.829,0.618,7.264,100.1513,-0.314,0.899,27.35,0,109.4,13.62,0.44,281.7
"2009-12-05 01:20:30",1475007,12.52,316.3,3.858,0.538,7.329,100.1598,-0.292,0.94,26.93,0,109.4,13.62,0.46,278.3
"2009-12-05 01:21:00",1475008,12.18,313.7,3.892,0.83,7.437,100.1699,-0.266,0.944,26.89,0,109.4,13.62,0.48,275.7
"2009-12-05 01:21:30",1475009,11.93,317.7,4.04,0.656,7.018,100.1699,-0.266,0.964,26.81,0,109.4,13.62,0.48,279.7
"2009-12-05 01:22:00",1475010,12.53,317.8,3.367,0.523,6.721,100.1827,-0.234,0.977,26.74,0,109.4,13.62,0.52,279.8
"2009-12-05 01:22:30",1475011,11.54,316.7,3.154,0.652,6.93,100.1869,-0.223,1.009,26.77,0,109.4,13.62,0.53,278.7
"2009-12-05 01:23:00",1475012,11.31,315.2,3.457,0.523,6.765,100.2008,-0.188,1.006,26.8,0,109.4,13.62,0.56,277.2
"2009-12-05 01:23:30",1475013,11.38,316.4,3.251,0.578,6.919,100.2039,-0.18,1.031,26.78,0,109.4,13.62,0.57,278.4
"2009-12-05 01:24:00",1475014,11.22,316,3.368,0.585,6.756,100.2039,-0.18,1.058,26.62,0,109.4,13.63,0.57,278.0
"2009-12-05 01:24:30",1475015,11.86,316.9,3.814,0.635,6.433,100.2045,-0.178,1.074,26.55,0,109.4,13.63,0.57,278.9
"2009-12-05 01:25:00",1475016,12.04,317.2,4.091,0.456,6.433,100.2156,-0.15,1.087,26.52,0,109.4,13.63,0.60,279.2
"2009-12-05 01:25:30",1475017,11.13,314.2,3.623,0.706,6.74,100.2255,-0.125,1.081,26.45,0,109.4,13.63,0.63,276.2
"2009-12-05 01:26:00",1475018,11.21,314.6,2.538,0.621,6.487,100.2379,-0.093,1.107,26.46,0,109.4,13.63,0.66,276.6
"2009-12-05 01:26:30",1475019,11.48,314.3,3.423,0.633,6.194,100.2379,-0.093,1.138,26.56,0,109.4,13.63,0.66,276.3
"2009-12-05 01:27:00",1475020,11.93,314.8,3.216,0.656,6.433,100.2379,-0.093,1.143,26.48,0,109.4,13.63,0.66,276.8
"2009-12-05 01:27:30",1475021,12,312.4,4.332,0.479,6.937,100.2399,-0.088,1.153,26.49,0,109.4,13.63,0.66,274.4
"2009-12-05 01:28:00",1475022,11.77,307.7,3.54,0.515,7.013,100.2524,-0.056,1.173,26.52,0,109.4,13.63,0.70,269.7
"2009-12-05 01:28:30",1475023,12.26,308.7,4.598,0.665,7.01,100.2716,-0.007,1.2,26.57,0,109.4,13.63,0.74,270.7
"2009-12-05 01:29:00",1475024,12.47,312.7,4.18,0.593,7.092,100.2719,-0.006,1.208,26.62,0,109.4,13.63,0.75,274.7
"2009-12-05 01:29:30",1475025,11.22,308.7,3.8,0.715,6.954,100.2801,0.015,1.211,26.58,0,109.4,13.63,0.77,270.7
"2009-12-05 01:30:00",1475026,11.31,311.3,3.605,0.45,6.704,100.2997,0.065,1.254,26.51,0,109.4,13.63,0.82,273.3
"2009-12-05 01:30:30",1475027,11.56,312.1,3.834,0.556,6.679,100.3059,0.08,1.281,26.49,0,109.4,13.63,0.83,274.1
"2009-12-05 01:31:00",1475028,11.16,312.4,3.213,0.667,6.454,100.3136,0.1,1.306,26.36,0,109.4,13.63,0.85,274.4
"2009-12-05 01:31:30",1475029,10.8,310.5,3.567,0.647,6.476,100.3286,0.138,1.336,26.41,0,109.4,13.63,0.89,272.5
"2009-12-05 01:32:00",1475030,11.37,309.2,3.598,0.408,6.549,100.3399,0.167,1.342,26.31,0,109.4,13.63,0.92,271.2
"2009-12-05 01:32:30",1475031,11.12,308.6,4.114,0.414,6.502,100.3399,0.167,1.389,26.23,0,109.4,13.63,0.92,270.6
"2009-12-05 01:33:00",1475032,10.98,306.3,3.677,0.569,6.634,100.3473,0.186,1.402,26.18,0,109.4,13.63,0.94,268.3
"2009-12-05 01:33:30",1475033,10.7,309.6,3.743,0.727,6.611,100.3662,0.234,1.414,26.15,0,109.4,13.63,0.99,271.6
"2009-12-05 01:34:00",1475034,10.57,310.6,3.5,0.519,6.527,100.3739,0.254,1.449,26.05,0,109.4,13.62,1.01,272.6
"2009-12-05 01:34:30",1475035,10.73,310,4.579,0.522,6.329,100.3736,0.253,1.469,26.04,0,109.4,13.62,1.01,272.0
"2009-12-05 01:35:00",1475036,9.56,311.4,4.89,0.527,6.407,100.3866,0.286,1.49,25.99,0,109.4,13.62,1.04,273.4
"2009-12-05 01:35:30",1475037,10.33,313.1,3.707,0.635,6.086,100.3957,0.309,1.494,26.01,0,109.5,13.62,1.06,275.1
"2009-12-05 01:36:00",1475038,10.21,316.5,3.181,0.57,6.364,100.4076,0.34,1.529,25.74,0,109.5,13.62,1.09,278.5
"2009-12-05 01:36:30",1475039,10.27,316.8,4.443,0.44,6.157,100.4079,0.34,1.558,25.68,0,109.4,13.62,1.09,278.8
"2009-12-05 01:37:00",1475040,9.94,320.3,4.786,0.458,6.249,100.4082,0.341,1.584,25.68,0,109.4,13.62,1.09,282.3
"2009-12-05 01:37:30",1475041,10.1,317.9,5.427,0.548,6.418,100.4175,0.365,1.595,25.67,0,109.4,13.62,1.12,279.9
"2009-12-05 01:38:00",1475042,9.82,321.2,4.198,0.663,6.198,100.4229,0.379,1.597,25.61,0,109.4,13.62,1.13,283.2
"2009-12-05 01:38:30",1475043,9.72,318.7,5.886,0.688,6.22,100.4328,0.404,1.635,25.6,0,109.5,13.62,1.16,280.7
"2009-12-05 01:39:00",1475044,10.95,321,3.974,0.733,6.33,100.4416,0.426,1.617,25.43,0,109.5,13.62,1.18,283.0
"2009-12-05 01:39:30",1475045,10.62,320.6,3.622,0.627,6.545,100.4402,0.423,1.641,25.37,0,109.5,13.62,1.18,282.6
"2009-12-05 01:40:00",1475046,9.46,319.9,3.424,0.872,6.281,100.4484,0.444,1.64,25.42,0,109.5,13.62,1.20,281.9
"2009-12-05 01:40:30",1475047,8.67,317.4,4.347,0.499,6.178,100.4552,0.461,1.681,25.4,0,109.5,13.62,1.21,279.4
"2009-12-05 01:41:00",1475048,9.16,322.8,5.424,0.546,6.304,100.4563,0.464,1.69,25.41,0,109.5,13.62,1.22,284.8
"2009-12-05 01:41:30",1475049,9.25,321.5,3.956,0.719,6.183,100.4628,0.481,1.693,25.34,0,109.5,13.62,1.23,283.5
"2009-12-05 01:42:00",1475050,9.6,320,4.822,0.629,6.106,100.4699,0.499,1.704,25.3,0,109.4,13.62,1.25,282.0
"2009-12-05 01:42:30",1475051,9.62,322.4,4.03,0.643,6.074,100.4733,0.507,1.733,25.31,0,109.5,13.62,1.26,284.4
"2009-12-05 01:43:00",1475052,9.81,326.2,4.472,0.588,6.271,100.4733,0.507,1.719,25.25,0,109.5,13.62,1.26,288.2
"2009-12-05 01:43:30",1475053,9.66,325.2,3.892,0.755,6.191,100.475,0.512,1.726,25.13,0,109.5,13.62,1.27,287.2
"2009-12-05 01:44:00",1475054,9.87,320.6,3.032,0.702,6.093,100.4742,0.509,1.727,25.16,0,109.5,13.62,1.26,282.6
"2009-12-05 01:44:30",1475055,9.67,321.8,3.468,0.538,6.159,100.4744,0.51,1.749,25.18,0,109.5,13.62,1.26,283.8
"2009-12-05 01:45:00",1475056,9.06,319.1,4.802,0.548,6.145,100.4742,0.509,1.746,25.13,0,109.5,13.62,1.26,281.1
"2009-12-05 01:45:30",1475057,8.74,318,4.191,0.544,6.143,100.4725,0.505,1.747,25.18,0,109.5,13.62,1.26,280.0
"2009-12-05 01:46:00",1475058,9.39,320.8,4.283,0.675,5.985,100.473,0.507,1.758,25.1,0,109.5,13.62,1.26,282.8
"2009-12-05 01:46:30",1475059,9.02,319.4,4.211,0.55,5.888,100.4719,0.504,1.764,25.09,0,109.5,13.62,1.26,281.4